• In Hungary
  • List of Countries
  • For 7 days
  • Water Temperature
  • Satellite Maps
  • Weather Map
  • News
  • Weather Widgets
  • user-avatar
    Login

    Hourly Weather Ruse

    Today, 15 December, Friday

    Time Temperature Precipitation Wind Pressure Humidity
    00:00 +10°C° 0 mm 1 mps 753 mmHg 78%
    01:00 +9°C° 0 mm 1 mps 753 mmHg 78%
    02:00 +9°C° 0 mm 1 mps 753 mmHg 79%
    03:00 +9°C° 0 mm 1 mps 753 mmHg 78%
    04:00 +8°C° 0 mm 2 mps 753 mmHg 78%
    05:00 +8°C° 0 mm 2 mps 753 mmHg 77%
    06:00 +8°C° 0 mm 2 mps 753 mmHg 76%
    07:00 +8°C° 0 mm 2 mps 753 mmHg 75%
    08:00 +7°C° 0 mm 2 mps 753 mmHg 74%
    09:00 +9°C° 0 mm 2 mps 753 mmHg 67%
    10:00 +12°C° 0 mm 2 mps 753 mmHg 60%
    11:00 +14°C° 0 mm 2 mps 753 mmHg 54%
    12:00 +15°C° 0 mm 2 mps 753 mmHg 51%
    13:00 +16°C° 0 mm 2 mps 752 mmHg 48%
    14:00 +17°C° 0 mm 2 mps 752 mmHg 45%
    15:00 +15°C° 0 mm 2 mps 752 mmHg 50%
    16:00 +13°C° 0 mm 3 mps 752 mmHg 56%
    17:00 +12°C° 0 mm 3 mps 752 mmHg 61%
    18:00 +11°C° 0 mm 3 mps 751 mmHg 62%
    19:00 +11°C° 0 mm 3 mps 751 mmHg 64%
    20:00 +10°C° 0 mm 3 mps 751 mmHg 66%
    21:00 +10°C° 0 mm 3 mps 750 mmHg 67%
    22:00 +10°C° 0 mm 3 mps 750 mmHg 68%
    23:00 +10°C° 0 mm 3 mps 750 mmHg 69%

    Tomorrow, 16 December, Saturday

    Time Temperature Precipitation Wind Pressure Humidity
    00:00 +10°C° 0 mm 3 mps 749 mmHg 70%
    01:00 +10°C° 0 mm 3 mps 749 mmHg 72%
    02:00 +9°C° 0 mm 3 mps 749 mmHg 73%
    03:00 +9°C° 0 mm 3 mps 749 mmHg 74%
    04:00 +9°C° 0 mm 3 mps 748 mmHg 75%
    05:00 +9°C° 0 mm 3 mps 748 mmHg 76%
    06:00 +9°C° 0 mm 3 mps 748 mmHg 76%
    07:00 +9°C° 0 mm 3 mps 748 mmHg 76%
    08:00 +9°C° 0 mm 3 mps 748 mmHg 77%
    09:00 +10°C° 0 mm 3 mps 748 mmHg 71%
    10:00 +12°C° 0 mm 3 mps 748 mmHg 65%
    11:00 +13°C° 0 mm 3 mps 748 mmHg 58%
    12:00 +14°C° 0 mm 3 mps 748 mmHg 56%
    13:00 +16°C° 0 mm 3 mps 747 mmHg 54%
    14:00 +16°C° 0 mm 3 mps 747 mmHg 52%
    15:00 +15°C° 0 mm 2 mps 747 mmHg 56%
    16:00 +15°C° 0 mm 2 mps 747 mmHg 60%
    17:00 +14°C° 0 mm 2 mps 748 mmHg 64%
    18:00 +13°C° 0.3 mm 1 mps 748 mmHg 69%
    19:00 +13°C° 0.3 mm 1 mps 748 mmHg 74%
    20:00 +12°C° 0.3 mm 1 mps 748 mmHg 79%
    21:00 +12°C° 0.8 mm 1 mps 748 mmHg 83%
    22:00 +11°C° 0.8 mm 1 mps 748 mmHg 87%
    23:00 +11°C° 0.8 mm 1 mps 749 mmHg 91%

    Day after tomorrow, 17 December, Sunday

    Time Temperature Precipitation Wind Pressure Humidity
    00:00 +9°C° 1.4 mm 2 mps 748 mmHg 91%
    01:00 +9°C° 1.4 mm 3 mps 748 mmHg 92%
    02:00 +7°C° 1.4 mm 4 mps 748 mmHg 93%
    03:00 +7°C° 1 mm 4 mps 748 mmHg 91%
    04:00 +7°C° 1 mm 4 mps 748 mmHg 89%
    05:00 +6°C° 1 mm 5 mps 749 mmHg 87%
    06:00 +6°C° 0.7 mm 4 mps 750 mmHg 86%
    07:00 +6°C° 0.7 mm 4 mps 750 mmHg 86%
    08:00 +5°C° 0.7 mm 3 mps 751 mmHg 86%
    09:00 +7°C° 0.4 mm 3 mps 752 mmHg 83%
    10:00 +7°C° 0.4 mm 3 mps 752 mmHg 80%
    11:00 +6°C° 0.4 mm 4 mps 753 mmHg 78%
    12:00 +6°C° 0.1 mm 4 mps 753 mmHg 74%
    13:00 +7°C° 0.1 mm 4 mps 753 mmHg 70%
    14:00 +7°C° 0.1 mm 4 mps 753 mmHg 67%
    15:00 +6°C° 0 mm 4 mps 754 mmHg 68%
    16:00 +6°C° 0 mm 4 mps 754 mmHg 69%
    17:00 +5°C° 0 mm 4 mps 755 mmHg 71%
    18:00 +5°C° 0 mm 4 mps 756 mmHg 71%
    19:00 +5°C° 0 mm 4 mps 756 mmHg 71%
    20:00 +4°C° 0 mm 4 mps 757 mmHg 71%
    21:00 +4°C° 0 mm 4 mps 758 mmHg 72%
    22:00 +3°C° 0 mm 4 mps 758 mmHg 73%
    23:00 +3°C° 0 mm 4 mps 759 mmHg 74%

    18 December, Monday

    Time Temperature Precipitation Wind Pressure Humidity
    00:00 +3°C° 0 mm 4 mps 759 mmHg 75%
    01:00 +1°C° 0 mm 4 mps 760 mmHg 75%
    02:00 +1°C° 0 mm 4 mps 760 mmHg 76%
    03:00 +1°C° 0.1 mm 4 mps 760 mmHg 77%
    04:00 +1°C° 0.1 mm 4 mps 760 mmHg 77%
    05:00 +1°C° 0.1 mm 4 mps 761 mmHg 77%
    06:00 +1°C° 0.1 mm 4 mps 761 mmHg 78%
    07:00 +1°C° 0.1 mm 4 mps 761 mmHg 78%
    08:00 +1°C° 0.1 mm 4 mps 762 mmHg 79%
    09:00 +1°C° 0.1 mm 4 mps 762 mmHg 77%
    10:00 +1°C° 0.1 mm 4 mps 762 mmHg 75%
    11:00 +1°C° 0.1 mm 4 mps 762 mmHg 73%
    12:00 +2°C° 0 mm 5 mps 762 mmHg 70%
    13:00 +2°C° 0 mm 5 mps 762 mmHg 67%
    14:00 +2°C° 0 mm 5 mps 761 mmHg 64%
    15:00 +3°C° 0 mm 4 mps 761 mmHg 65%
    16:00 +3°C° 0 mm 4 mps 761 mmHg 66%
    17:00 +2°C° 0 mm 3 mps 761 mmHg 67%
    18:00 +2°C° 0 mm 3 mps 762 mmHg 69%
    19:00 +1°C° 0 mm 3 mps 762 mmHg 70%
    20:00 0°C° 0 mm 3 mps 762 mmHg 71%
    21:00 0°C° 0 mm 3 mps 763 mmHg 73%
    22:00 0°C° 0 mm 3 mps 763 mmHg 74%
    23:00 -1°C° 0 mm 3 mps 763 mmHg 75%

    19 December, Tuesday

    Time Temperature Precipitation Wind Pressure Humidity
    00:00 -1°C° 0 mm 3 mps 763 mmHg 76%
    01:00 -1°C° 0 mm 2 mps 764 mmHg 76%
    02:00 -1°C° 0 mm 2 mps 764 mmHg 77%
    03:00 -1°C° 0 mm 2 mps 764 mmHg 77%
    04:00 -1°C° 0 mm 2 mps 764 mmHg 77%
    05:00 -1°C° 0 mm 2 mps 764 mmHg 76%
    06:00 -1°C° 0 mm 2 mps 765 mmHg 76%
    07:00 -1°C° 0 mm 2 mps 765 mmHg 75%
    08:00 +1°C° 0 mm 1 mps 765 mmHg 74%
    09:00 +1°C° 0 mm 2 mps 766 mmHg 69%
    10:00 +2°C° 0 mm 2 mps 766 mmHg 63%
    11:00 +3°C° 0 mm 2 mps 766 mmHg 57%
    12:00 +4°C° 0 mm 2 mps 766 mmHg 55%
    13:00 +4°C° 0 mm 2 mps 765 mmHg 53%
    14:00 +5°C° 0 mm 2 mps 765 mmHg 51%
    15:00 +4°C° 0 mm 2 mps 765 mmHg 55%
    16:00 +4°C° 0 mm 1 mps 765 mmHg 60%
    17:00 +3°C° 0 mm 1 mps 765 mmHg 64%
    18:00 +3°C° 0 mm 1 mps 765 mmHg 64%
    19:00 +2°C° 0 mm 1 mps 766 mmHg 65%
    20:00 +2°C° 0 mm 1 mps 766 mmHg 66%
    21:00 +2°C° 0 mm 1 mps 766 mmHg 66%
    22:00 +2°C° 0 mm 1 mps 766 mmHg 67%
    23:00 +2°C° 0 mm 1 mps 766 mmHg 67%

    20 December, Wednesday

    Time Temperature Precipitation Wind Pressure Humidity
    00:00 +2°C° 0 mm 1 mps 765 mmHg 67%
    01:00 +2°C° 0 mm 1 mps 765 mmHg 68%
    02:00 +2°C° 0 mm 1 mps 765 mmHg 68%
    03:00 +2°C° 0 mm 1 mps 765 mmHg 69%
    04:00 +1°C° 0 mm 0 mps 765 mmHg 70%
    05:00 +1°C° 0 mm 0 mps 765 mmHg 70%
    06:00 +1°C° 0 mm 0 mps 765 mmHg 71%
    07:00 +2°C° 0 mm 1 mps 765 mmHg 72%
    08:00 +2°C° 0 mm 1 mps 765 mmHg 73%
    09:00 +3°C° 0 mm 1 mps 765 mmHg 70%
    10:00 +2°C° 0 mm 2 mps 766 mmHg 67%
    11:00 +3°C° 0 mm 2 mps 766 mmHg 64%
    12:00 +2°C° 0 mm 3 mps 766 mmHg 64%
    13:00 +3°C° 0 mm 3 mps 766 mmHg 64%
    14:00 +3°C° 0 mm 4 mps 766 mmHg 64%
    15:00 +2°C° 0 mm 3 mps 766 mmHg 69%
    16:00 +1°C° 0 mm 3 mps 766 mmHg 74%
    17:00 +1°C° 0 mm 3 mps 767 mmHg 78%
    18:00 0°C° 0 mm 3 mps 767 mmHg 79%
    19:00 0°C° 0 mm 3 mps 768 mmHg 80%
    20:00 0°C° 0 mm 3 mps 768 mmHg 82%
    21:00 0°C° 0 mm 3 mps 769 mmHg 82%
    22:00 -1°C° 0 mm 3 mps 769 mmHg 83%
    23:00 -1°C° 0 mm 2 mps 769 mmHg 83%
    Show more